Flag for Germany Weather past 2 weeks in Geislingen an der Steige, Baden-Württemberg, Germany

Now
48 °F

Low clouds.


Feels Like: 45 °F
Forecast: 38 / 58 °F
Wind: 6 mph from West

Location: Stoetten

Current Time: Sep 22, 2014 at 2:28:41 PM

Latest Report: Sep 22, 2014 at 2:00 PM


Visibility: 4 mi

Pressure: 30.08 "Hg

Humidity: 87%

Dew point: 44 °F

Location of Geislingen an der SteigeLocation

Historic Weather in Geislingen an der Steige — Graph

°F

Geislingen an der Steige temperature yesterday

Maximum temperature yesterday: 60 °F (at 4:00 PM)
Minimum temperature yesterday: 51 °F (at 10:00 PM)
Average temperature yesterday: 56 °F

Past Weeks' High & Low Weather Summary

 TemperatureHumidityPressure
High71 °F (Sep 7, 3:00 PM)100% (Sep 11, 9:00 AM)30.16 "Hg (Sep 11, 9:00 AM)
Low45 °F (Sep 22, 9:00 AM)51% (Sep 7, 3:00 PM)29.84 "Hg (Sep 18, 4:00 PM)
Average57 °F89%30.00 "Hg
* Reported Sep 7 1:00 PM — Sep 22 1:00 PM, Geislingen an der Steige, Weather by CustomWeather, © 2014

Note: Actual official high and low records may vary slightly from our data, if they occured in-between our weather recording intervals... More about our weather records

Advertising

Geislingen an der Steige weather history for previous 24 hours

 ConditionsComfort  
Time TempWeatherWind HumidityBarometerVisibility
1:00 PM
Sep 22
47 °FLight rain. Low clouds.8 mph92%30.10 "Hg3 mi
12:00 PM46 °FLow clouds.5 mph95%30.12 "Hg3 mi
11:00 AM46 °FFog.6 mph99%30.13 "Hg2 mi
10:00 AM45 °FFog.7 mph99%30.13 "Hg0 mi
9:00 AM45 °FFog.6 mph100%30.12 "Hg0 mi
8:00 AM45 °FFog.7 mph100%30.12 "Hg0 mi
7:00 AM46 °FFog.7 mph100%30.11 "Hg0 mi
6:00 AM46 °FFog.8 mph99%30.10 "Hg0 mi
5:00 AM47 °FLow clouds.6 mph99%30.09 "Hg1 mi
4:00 AM48 °FLow clouds.5 mph99%30.09 "Hg0 mi
3:00 AM49 °FLow clouds.6 mph98%30.08 "Hg1 mi
2:00 AM49 °FLow clouds.7 mph95%30.09 "Hg6 mi
1:00 AM50 °FLow clouds.7 mph97%30.07 "Hg1 mi
12:00 AM50 °FLow clouds.7 mph99%30.06 "Hg2 mi
11:00 PM
Sep 21
51 °FLow clouds.7 mph99%30.04 "Hg1 mi
10:00 PM51 °FLow clouds.6 mph99%30.04 "Hg2 mi
9:00 PM52 °FLight rain. Low clouds.7 mph99%30.01 "Hg6 mi
8:00 PM52 °FLight rain. Low clouds.7 mph97%29.99 "Hg5 mi
7:00 PM55 °FSprinkles. Low clouds.9 mph99%29.94 "Hg5 mi
6:00 PM58 °FOvercast.7 mph89%29.92 "Hg34 mi
5:00 PM59 °FOvercast.7 mph89%29.92 "Hg31 mi
4:00 PM60 °FOvercast.7 mph83%29.92 "Hg25 mi
3:00 PM58 °FOvercast.6 mph94%29.94 "Hg9 mi
2:00 PM58 °FFog.6 mph99%29.95 "Hg1 mi
Weather by CustomWeather, © 2014

See weather overviewHow to use our weather pages